| time (UTC) | temp F | wind direction | speed MPH | gust MPH | rain 1hr in | rain 24hr in | rain mn in | humidity % | barometer mb |
| 20260509221559 | 58 | 30 | 7.0 | 14.0 | 0.00 | 0.00 | 0.00 | 34 | 1016.3 |
| 20260509220103 | 59 | 25 | 7.0 | 14.0 | 0.00 | 0.00 | 0.00 | 33 | 1016.3 |
| 20260509214628 | 59 | 44 | 10.0 | 23.0 | 0.00 | 0.00 | 0.00 | 33 | 1016.4 |
| 20260509213104 | 60 | 242 | 4.0 | 18.0 | 0.00 | 0.00 | 0.00 | 34 | 1016.3 |
| 20260509211600 | 59 | 253 | 3.0 | 16.0 | 0.00 | 0.00 | 0.00 | 36 | 1016.4 |
| 20260509210108 | 60 | 328 | 13.0 | 21.0 | 0.00 | 0.00 | 0.00 | 32 | 1016.6 |
| 20260509204600 | 58 | 44 | 9.0 | 17.0 | 0.00 | 0.00 | 0.00 | 35 | 1016.7 |
| 20260509203115 | 58 | 341 | 2.0 | 15.0 | 0.00 | 0.00 | 0.00 | 35 | 1016.6 |
| 20260509201602 | 58 | 323 | 8.0 | 20.0 | 0.00 | 0.00 | 0.00 | 35 | 1016.6 |
| 20260509194601 | 57 | 24 | 9.0 | 17.0 | 0.00 | 0.00 | 0.00 | 37 | 1016.7 |
| 20260509193111 | 56 | 162 | 2.0 | 16.0 | 0.00 | 0.00 | 0.00 | 38 | 1016.7 |
| 20260509191608 | 55 | 339 | 6.0 | 10.0 | 0.00 | 0.00 | 0.00 | 38 | 1016.8 |
| 20260509190100 | 55 | 10 | 9.0 | 16.0 | 0.00 | 0.00 | 0.00 | 38 | 1016.8 |
| 20260509184602 | 55 | 351 | 10.0 | 17.0 | 0.00 | 0.00 | 0.00 | 38 | 1016.8 |
| 20260509183104 | 54 | 18 | 9.0 | 15.0 | 0.00 | 0.00 | 0.00 | 37 | 1016.8 |
| 20260509181604 | 54 | 330 | 12.0 | 16.0 | 0.00 | 0.00 | 0.00 | 39 | 1016.8 |
| 20260509180113 | 54 | 359 | 8.0 | 18.0 | 0.00 | 0.00 | 0.00 | 39 | 1016.9 |
| 20260509174624 | 53 | 19 | 11.0 | 17.0 | 0.00 | 0.00 | 0.00 | 41 | 1016.9 |
| 20260509173100 | 53 | 4 | 7.0 | 15.0 | 0.00 | 0.00 | 0.00 | 40 | 1016.8 |
| 20260509171559 | 53 | 41 | 9.0 | 15.0 | 0.00 | 0.00 | 0.00 | 41 | 1016.8 |
| 20260509164600 | 51 | 330 | 6.0 | 11.0 | 0.00 | 0.00 | 0.00 | 43 | 1016.8 |
| 20260509163114 | 51 | 38 | 5.0 | 14.0 | 0.00 | 0.00 | 0.00 | 42 | 1017.0 |
| 20260509161602 | 51 | 36 | 5.0 | 13.0 | 0.00 | 0.00 | 0.00 | 42 | 1016.9 |
| 20260509160101 | 50 | 45 | 3.0 | 11.0 | 0.00 | 0.00 | 0.00 | 42 | 1016.8 |
| 20260509154602 | 50 | 351 | 7.0 | 11.0 | 0.00 | 0.00 | 0.00 | 42 | 1016.8 |
| 20260509153117 | 49 | 328 | 4.0 | 10.0 | 0.00 | 0.00 | 0.00 | 42 | 1016.8 |
| 20260509151601 | 48 | 10 | 3.0 | 11.0 | 0.00 | 0.00 | 0.00 | 43 | 1016.7 |
| 20260509144603 | 46 | 43 | 3.0 | 9.0 | 0.00 | 0.00 | 0.00 | 48 | 1016.8 |
| 20260509143101 | 44 | 359 | 2.0 | 4.0 | 0.00 | 0.00 | 0.00 | 55 | 1016.7 |
| 20260509141559 | 42 | 12 | 1.0 | 3.0 | 0.00 | 0.00 | 0.00 | 62 | 1016.7 |
| 20260509134602 | 38 | 240 | 1.0 | 3.0 | 0.00 | 0.00 | 0.00 | 75 | 1016.5 |
| 20260509133059 | 35 | 0 | 0.0 | 1.0 | 0.00 | 0.00 | 0.00 | 80 | 1016.3 |
| 20260509131601 | 31 | 0 | 0.0 | 0.0 | 0.00 | 0.00 | 0.00 | 85 | 1016.3 |
| 20260509130109 | 29 | 0 | 0.0 | 0.0 | 0.00 | 0.00 | 0.00 | 85 | 1016.3 |
| 20260509124559 | 27 | 0 | 0.0 | 0.0 | 0.00 | 0.00 | 0.00 | 84 | 1016.1 |
| 20260509123102 | 26 | 241 | 1.0 | 3.0 | 0.00 | 0.00 | 0.00 | 83 | 1015.9 |
| 20260509121627 | 25 | 241 | 1.0 | 2.0 | 0.00 | 0.00 | 0.00 | 82 | 1015.9 |
| 20260509120100 | 24 | 241 | 1.0 | 3.0 | 0.00 | 0.00 | 0.00 | 80 | 1015.8 |
| 20260509114610 | 23 | 241 | 3.0 | 5.0 | 0.00 | 0.00 | 0.00 | 80 | 1015.7 |
| 20260509113107 | 23 | 163 | 1.0 | 4.0 | 0.00 | 0.00 | 0.00 | 79 | 1015.5 |
| 20260509111600 | 23 | 0 | 0.0 | 0.0 | 0.00 | 0.00 | 0.00 | 79 | 1015.4 |
| 20260509110109 | 23 | 0 | 0.0 | 2.0 | 0.00 | 0.00 | 0.00 | 79 | 1015.4 |
| 20260509104600 | 24 | 163 | 3.0 | 5.0 | 0.00 | 0.00 | 0.00 | 79 | 1015.5 |
| 20260509103104 | 24 | 163 | 4.0 | 5.0 | 0.00 | 0.00 | 0.00 | 79 | 1015.2 |
| 20260509101615 | 24 | 163 | 3.0 | 4.0 | 0.00 | 0.00 | 0.00 | 80 | 1015.1 |
| 20260509100104 | 25 | 163 | 4.0 | 5.0 | 0.00 | 0.00 | 0.00 | 81 | 1015.1 |
| 20260509094609 | 25 | 163 | 2.0 | 4.0 | 0.00 | 0.00 | 0.00 | 81 | 1014.8 |
| 20260509093059 | 26 | 163 | 3.0 | 5.0 | 0.00 | 0.00 | 0.00 | 82 | 1014.6 |
| 20260509091608 | 26 | 163 | 0.0 | 2.0 | 0.00 | 0.00 | 0.00 | 82 | 1014.5 |
| 20260509090106 | 26 | 0 | 0.0 | 0.0 | 0.00 | 0.00 | 0.00 | 82 | 1014.5 |
| 20260509084603 | 26 | 163 | 1.0 | 4.0 | 0.00 | 0.00 | 0.00 | 81 | 1014.3 |
| 20260509083109 | 27 | 163 | 1.0 | 4.0 | 0.00 | 0.00 | 0.00 | 82 | 1014.0 |
| 20260509081607 | 27 | 163 | 1.0 | 4.0 | 0.00 | 0.00 | 0.00 | 80 | 1013.9 |
| 20260509074609 | 28 | 163 | 4.0 | 5.0 | 0.00 | 0.00 | 0.00 | 79 | 1013.6 |
| 20260509073100 | 29 | 163 | 2.0 | 4.0 | 0.00 | 0.00 | 0.00 | 79 | 1013.6 |
| 20260509071559 | 29 | 163 | 3.0 | 5.0 | 0.00 | 0.00 | 0.00 | 77 | 1013.5 |
| 20260509070100 | 29 | 163 | 5.0 | 6.0 | 0.00 | 0.00 | 0.00 | 76 | 1013.4 |
| 20260509064605 | 30 | 134 | 3.0 | 4.0 | 0.00 | 0.00 | 0.00 | 76 | 1013.1 |
| 20260509063100 | 31 | 111 | 4.0 | 7.0 | 0.00 | 0.00 | 0.00 | 75 | 1013.0 |
| 20260509061604 | 31 | 100 | 5.0 | 7.0 | 0.00 | 0.00 | 0.00 | 74 | 1012.7 |
| 20260509060111 | 32 | 100 | 3.0 | 6.0 | 0.00 | 0.00 | 0.00 | 73 | 1012.5 |
| 20260509054608 | 33 | 115 | 4.0 | 7.0 | 0.00 | 0.00 | 0.00 | 71 | 1012.5 |
| 20260509053135 | 34 | 80 | 3.0 | 5.0 | 0.00 | 0.00 | 0.00 | 71 | 1012.3 |
| 20260509051601 | 35 | 89 | 5.0 | 6.0 | 0.00 | 0.00 | 0.00 | 69 | 1012.1 |
| 20260509050059 | 36 | 108 | 4.0 | 6.0 | 0.00 | 0.00 | 0.00 | 67 | 1012.0 |
| 20260509044658 | 37 | 108 | 5.0 | 9.0 | 0.00 | 0.00 | 0.00 | 67 | 1011.9 |
| 20260509043139 | 38 | 88 | 6.0 | 9.0 | 0.00 | 0.00 | 0.00 | 64 | 1011.6 |
| 20260509041559 | 39 | 88 | 6.0 | 9.0 | 0.00 | 0.00 | 0.00 | 63 | 1011.6 |
| 20260509040105 | 40 | 87 | 8.0 | 13.0 | 0.00 | 0.00 | 0.00 | 60 | 1011.4 |
| 20260509034559 | 42 | 81 | 7.0 | 10.0 | 0.00 | 0.00 | 0.00 | 59 | 1011.4 |
| 20260509033100 | 43 | 87 | 7.0 | 8.0 | 0.00 | 0.00 | 0.00 | 57 | 1011.1 |
| 20260509031603 | 45 | 93 | 5.0 | 9.0 | 0.00 | 0.00 | 0.00 | 52 | 1010.9 |
| 20260509030114 | 49 | 86 | 7.0 | 11.0 | 0.00 | 0.00 | 0.00 | 47 | 1010.7 |
| 20260509024603 | 51 | 60 | 9.0 | 13.0 | 0.00 | 0.00 | 0.00 | 45 | 1010.1 |
| 20260509023101 | 53 | 61 | 9.0 | 12.0 | 0.00 | 0.00 | 0.00 | 42 | 1009.7 |
| 20260509021601 | 55 | 61 | 10.0 | 16.0 | 0.00 | 0.00 | 0.00 | 41 | 1009.6 |
| 20260509020109 | 56 | 54 | 14.0 | 21.0 | 0.00 | 0.00 | 0.00 | 39 | 1009.4 |
| 20260509014559 | 58 | 62 | 11.0 | 20.0 | 0.00 | 0.00 | 0.00 | 37 | 1009.2 |
| 20260509013103 | 59 | 50 | 16.0 | 21.0 | 0.00 | 0.00 | 0.00 | 36 | 1008.9 |
| 20260509011601 | 60 | 52 | 15.0 | 19.0 | 0.00 | 0.00 | 0.00 | 35 | 1008.8 |
| 20260509010100 | 61 | 67 | 11.0 | 22.0 | 0.00 | 0.00 | 0.00 | 33 | 1008.6 |
| 20260509004613 | 62 | 52 | 15.0 | 23.0 | 0.00 | 0.00 | 0.00 | 33 | 1008.4 |
| 20260509003100 | 62 | 47 | 12.0 | 19.0 | 0.00 | 0.00 | 0.00 | 33 | 1008.3 |
| 20260509001600 | 63 | 27 | 14.0 | 21.0 | 0.00 | 0.00 | 0.00 | 34 | 1008.1 |
| 20260509000106 | 64 | 33 | 14.0 | 22.0 | 0.00 | 0.00 | 0.00 | 34 | 1008.0 |
| 20260508234558 | 64 | 38 | 15.0 | 22.0 | 0.00 | 0.00 | 0.00 | 34 | 1008.0 |
| 20260508233100 | 64 | 32 | 16.0 | 24.0 | 0.00 | 0.00 | 0.00 | 32 | 1007.8 |
| 20260508231600 | 65 | 14 | 14.0 | 26.0 | 0.00 | 0.00 | 0.00 | 30 | 1007.7 |
| 20260508224647 | 65 | 16 | 17.0 | 25.0 | 0.00 | 0.00 | 0.00 | 31 | 1007.6 |
| 20260508223059 | 65 | 10 | 17.0 | 24.0 | 0.00 | 0.00 | 0.00 | 31 | 1007.5 |